| time (UTC) | temp F | wind direction | speed knots | gust knots | rain 1hr in | rain 24hr in | rain mn in | humidity % | barometer mb |
| 20260506123500 | 74 | 151 | 0.0 | 0.0 | 0.00 | 0.00 | 0.00 | 98 | 1010.4 |
| 20260506122958 | 74 | 148 | 0.0 | 0.0 | 0.00 | 0.00 | 0.00 | 98 | 1010.4 |
| 20260506122454 | 74 | 146 | 0.0 | 0.0 | 0.00 | 0.00 | 0.00 | 98 | 1010.3 |
| 20260506121953 | 74 | 152 | 0.0 | 0.0 | 0.00 | 0.00 | 0.00 | 98 | 1010.4 |
| 20260506121450 | 74 | 143 | 0.0 | 0.0 | 0.00 | 0.00 | 0.00 | 98 | 1010.6 |
| 20260506120946 | 74 | 149 | 0.0 | 0.0 | 0.00 | 0.00 | 0.00 | 98 | 1010.4 |
| 20260506120444 | 74 | 152 | 0.0 | 0.0 | 0.00 | 0.00 | 0.00 | 97 | 1010.4 |
| 20260506115941 | 74 | 149 | 0.0 | 0.0 | 0.00 | 0.00 | 0.00 | 97 | 1010.3 |
| 20260506115439 | 74 | 154 | 0.0 | 0.0 | 0.00 | 0.00 | 0.00 | 97 | 1010.4 |
| 20260506114937 | 74 | 148 | 0.0 | 0.0 | 0.00 | 0.00 | 0.00 | 97 | 1010.3 |
| 20260506114434 | 74 | 148 | 0.0 | 0.0 | 0.00 | 0.00 | 0.00 | 97 | 1010.4 |
| 20260506113933 | 74 | 148 | 0.0 | 0.0 | 0.00 | 0.00 | 0.00 | 97 | 1010.4 |
| 20260506113430 | 74 | 148 | 0.0 | 0.0 | 0.00 | 0.00 | 0.00 | 97 | 1010.4 |
| 20260506112926 | 74 | 150 | 0.0 | 0.0 | 0.00 | 0.00 | 0.00 | 97 | 1010.3 |
| 20260506112424 | 74 | 151 | 0.0 | 0.0 | 0.00 | 0.00 | 0.00 | 97 | 1010.4 |
| 20260506111921 | 74 | 148 | 0.0 | 0.0 | 0.00 | 0.00 | 0.00 | 97 | 1010.2 |
| 20260506111419 | 74 | 143 | 0.0 | 0.0 | 0.00 | 0.00 | 0.00 | 97 | 1010.2 |
| 20260506110916 | 74 | 148 | 0.0 | 0.0 | 0.00 | 0.00 | 0.00 | 97 | 1010.2 |
| 20260506110414 | 74 | 153 | 0.0 | 0.0 | 0.00 | 0.00 | 0.00 | 97 | 1010.1 |
| 20260506105910 | 74 | 152 | 0.0 | 0.0 | 0.00 | 0.00 | 0.00 | 97 | 1010.2 |
| 20260506105406 | 74 | 141 | 0.0 | 0.0 | 0.00 | 0.00 | 0.00 | 97 | 1010.2 |
| 20260506104904 | 74 | 151 | 0.0 | 0.0 | 0.00 | 0.00 | 0.00 | 97 | 1010.0 |
| 20260506104402 | 74 | 151 | 0.0 | 0.0 | 0.00 | 0.00 | 0.00 | 97 | 1009.8 |
| 20260506103859 | 74 | 166 | 0.9 | 0.9 | 0.00 | 0.00 | 0.00 | 97 | 1009.8 |
| 20260506103357 | 74 | 156 | 2.6 | 2.6 | 0.00 | 0.00 | 0.00 | 97 | 1009.4 |
| 20260506102854 | 74 | 150 | 0.0 | 0.0 | 0.00 | 0.00 | 0.00 | 97 | 1009.5 |
| 20260506102352 | 74 | 151 | 0.9 | 0.9 | 0.00 | 0.00 | 0.00 | 97 | 1009.8 |
| 20260506101848 | 74 | 153 | 0.0 | 0.9 | 0.00 | 0.00 | 0.00 | 97 | 1009.4 |
| 20260506101344 | 74 | 145 | 0.0 | 0.9 | 0.00 | 0.00 | 0.00 | 97 | 1009.3 |
| 20260506100843 | 74 | 152 | 0.0 | 0.0 | 0.00 | 0.00 | 0.00 | 97 | 1009.4 |
| 20260506100341 | 74 | 159 | 0.9 | 0.9 | 0.00 | 0.00 | 0.00 | 97 | 1009.4 |
| 20260506095839 | 74 | 151 | 0.0 | 0.0 | 0.00 | 0.00 | 0.00 | 97 | 1009.5 |
| 20260506095336 | 74 | 158 | 0.9 | 0.9 | 0.00 | 0.00 | 0.00 | 97 | 1009.3 |
| 20260506094832 | 74 | 151 | 0.9 | 0.9 | 0.00 | 0.00 | 0.00 | 97 | 1009.4 |
| 20260506094331 | 74 | 166 | 0.9 | 0.9 | 0.00 | 0.00 | 0.00 | 97 | 1009.2 |
| 20260506093829 | 74 | 165 | 2.6 | 2.6 | 0.00 | 0.00 | 0.00 | 97 | 1009.1 |
| 20260506093326 | 74 | 149 | 0.0 | 0.0 | 0.00 | 0.00 | 0.00 | 97 | 1009.1 |
| 20260506092824 | 74 | 158 | 0.9 | 0.9 | 0.00 | 0.00 | 0.00 | 97 | 1009.1 |
| 20260506092321 | 74 | 156 | 2.6 | 4.3 | 0.00 | 0.00 | 0.00 | 97 | 1008.8 |
| 20260506091818 | 74 | 154 | 0.9 | 0.9 | 0.00 | 0.00 | 0.00 | 97 | 1009.0 |
| 20260506091316 | 74 | 148 | 2.6 | 2.6 | 0.00 | 0.00 | 0.00 | 97 | 1008.9 |
| 20260506090813 | 74 | 155 | 0.0 | 0.0 | 0.00 | 0.00 | 0.00 | 97 | 1009.0 |
| 20260506090310 | 75 | 163 | 0.9 | 0.9 | 0.00 | 0.00 | 0.00 | 97 | 1008.9 |
| 20260506085807 | 75 | 163 | 1.7 | 1.7 | 0.00 | 0.00 | 0.00 | 97 | 1008.8 |
| 20260506085305 | 75 | 151 | 0.0 | 0.0 | 0.00 | 0.00 | 0.00 | 97 | 1008.9 |
| 20260506084800 | 75 | 158 | 0.0 | 0.0 | 0.00 | 0.00 | 0.00 | 97 | 1008.7 |
| 20260506084256 | 75 | 149 | 0.0 | 0.9 | 0.00 | 0.00 | 0.00 | 96 | 1008.8 |
| 20260506083753 | 75 | 179 | 2.6 | 2.6 | 0.00 | 0.00 | 0.00 | 96 | 1009.1 |
| 20260506083251 | 75 | 170 | 1.7 | 2.6 | 0.00 | 0.00 | 0.00 | 96 | 1009.0 |
| 20260506082748 | 75 | 169 | 4.3 | 7.0 | 0.00 | 0.00 | 0.00 | 96 | 1008.9 |
| 20260506082243 | 75 | 156 | 0.9 | 0.9 | 0.00 | 0.00 | 0.00 | 96 | 1009.1 |
| 20260506081741 | 75 | 152 | 1.7 | 2.6 | 0.00 | 0.00 | 0.00 | 96 | 1008.8 |
| 20260506081238 | 75 | 158 | 1.7 | 1.7 | 0.00 | 0.00 | 0.00 | 96 | 1008.9 |
| 20260506080737 | 75 | 200 | 0.9 | 0.9 | 0.00 | 0.00 | 0.00 | 96 | 1009.1 |
| 20260506080233 | 75 | 166 | 3.5 | 5.2 | 0.00 | 0.00 | 0.00 | 96 | 1009.0 |
| 20260506073217 | 75 | 156 | 0.9 | 1.7 | 0.00 | 0.00 | 0.00 | 96 | 1009.3 |
| 20260506072714 | 75 | 159 | 0.9 | 0.9 | 0.00 | 0.00 | 0.00 | 96 | 1009.7 |
| 20260506072211 | 75 | 152 | 0.0 | 0.0 | 0.00 | 0.00 | 0.00 | 96 | 1009.4 |
| 20260506071708 | 75 | 162 | 0.9 | 1.7 | 0.00 | 0.00 | 0.00 | 96 | 1009.7 |
| 20260506071206 | 75 | 165 | 2.6 | 4.3 | 0.00 | 0.00 | 0.00 | 96 | 1009.4 |
| 20260506070703 | 75 | 153 | 0.0 | 0.9 | 0.00 | 0.00 | 0.00 | 96 | 1009.5 |
| 20260506070200 | 75 | 171 | 2.6 | 4.3 | 0.00 | 0.00 | 0.00 | 95 | 1009.5 |
| 20260506062137 | 75 | 165 | 3.5 | 5.2 | 0.00 | 0.00 | 0.00 | 95 | 1009.7 |
| 20260506061633 | 75 | 134 | 1.7 | 2.6 | 0.00 | 0.00 | 0.00 | 95 | 1009.5 |
| 20260506061131 | 75 | 148 | 0.9 | 0.9 | 0.00 | 0.00 | 0.00 | 95 | 1009.5 |
| 20260506060629 | 75 | 183 | 2.6 | 5.2 | 0.00 | 0.00 | 0.00 | 95 | 1009.5 |
| 20260506060126 | 75 | 191 | 1.7 | 2.6 | 0.00 | 0.00 | 0.00 | 95 | 1009.7 |
| 20260506051058 | 76 | 155 | 0.0 | 0.9 | 0.00 | 0.00 | 0.00 | 94 | 1009.8 |
| 20260506050555 | 76 | 165 | 3.5 | 4.3 | 0.00 | 0.00 | 0.00 | 93 | 1009.9 |
| 20260506045046 | 76 | 156 | 0.9 | 0.9 | 0.00 | 0.00 | 0.00 | 93 | 1009.5 |
| 20260506044544 | 76 | 182 | 3.5 | 6.1 | 0.00 | 0.00 | 0.00 | 93 | 1009.8 |
| 20260506044040 | 76 | 149 | 0.9 | 1.7 | 0.00 | 0.00 | 0.00 | 93 | 1010.0 |
| 20260506043537 | 76 | 159 | 2.6 | 5.2 | 0.00 | 0.00 | 0.00 | 93 | 1009.9 |
| 20260506043036 | 76 | 153 | 0.9 | 1.7 | 0.00 | 0.00 | 0.00 | 93 | 1009.8 |
| 20260506042535 | 76 | 180 | 0.9 | 1.7 | 0.00 | 0.00 | 0.00 | 93 | 1009.7 |
| 20260506042032 | 76 | 174 | 2.6 | 5.2 | 0.00 | 0.00 | 0.00 | 93 | 1009.5 |
| 20260506041531 | 76 | 161 | 2.6 | 2.6 | 0.00 | 0.00 | 0.00 | 93 | 1009.7 |
| 20260506041027 | 76 | 148 | 0.0 | 0.0 | 0.00 | 0.00 | 0.00 | 93 | 1009.7 |
| 20260506040525 | 76 | 149 | 1.7 | 1.7 | 0.00 | 0.00 | 0.00 | 93 | 1009.4 |
| 20260506040021 | 76 | 123 | 0.0 | 0.0 | 0.00 | 0.00 | 0.00 | 93 | 1009.4 |
| 20260506035518 | 76 | 153 | 0.9 | 1.7 | 0.00 | 0.00 | 0.00 | 93 | 1009.4 |
| 20260506035014 | 76 | 155 | 0.9 | 0.9 | 0.00 | 0.00 | 0.00 | 93 | 1009.3 |
| 20260506034512 | 77 | 169 | 0.9 | 1.7 | 0.00 | 0.00 | 0.00 | 93 | 1009.1 |
| 20260506034009 | 77 | 149 | 0.9 | 0.9 | 0.00 | 0.00 | 0.00 | 93 | 1009.3 |
| 20260506033506 | 77 | 161 | 0.9 | 0.9 | 0.00 | 0.00 | 0.00 | 93 | 1008.9 |
| 20260506033004 | 77 | 170 | 3.5 | 5.2 | 0.00 | 0.00 | 0.00 | 93 | 1009.0 |
| 20260506032501 | 77 | 167 | 1.7 | 1.7 | 0.00 | 0.00 | 0.00 | 92 | 1008.8 |
| 20260506031956 | 77 | 148 | 0.9 | 0.9 | 0.00 | 0.00 | 0.00 | 92 | 1008.9 |
| 20260506031455 | 77 | 147 | 0.0 | 0.0 | 0.00 | 0.00 | 0.00 | 92 | 1008.9 |
| 20260506030952 | 77 | 147 | 1.7 | 2.6 | 0.00 | 0.00 | 0.00 | 92 | 1008.8 |
| 20260506030450 | 77 | 155 | 0.0 | 0.0 | 0.00 | 0.00 | 0.00 | 92 | 1008.7 |
| 20260506025946 | 77 | 157 | 0.0 | 0.0 | 0.00 | 0.00 | 0.00 | 92 | 1008.8 |
| 20260506025443 | 77 | 162 | 2.6 | 4.3 | 0.00 | 0.00 | 0.00 | 92 | 1008.6 |
| 20260506024940 | 77 | 158 | 0.0 | 0.0 | 0.00 | 0.00 | 0.00 | 91 | 1008.4 |
| 20260506024437 | 77 | 180 | 0.9 | 4.3 | 0.00 | 0.00 | 0.00 | 91 | 1008.5 |
| 20260506023932 | 77 | 159 | 0.9 | 1.7 | 0.00 | 0.00 | 0.00 | 90 | 1008.3 |
| 20260506023429 | 77 | 146 | 0.0 | 0.0 | 0.00 | 0.00 | 0.00 | 90 | 1008.2 |
| 20260506022926 | 77 | 153 | 0.0 | 0.0 | 0.00 | 0.00 | 0.00 | 90 | 1008.1 |
| 20260506022424 | 77 | 158 | 0.0 | 0.0 | 0.00 | 0.00 | 0.00 | 89 | 1008.1 |
| 20260506021922 | 77 | 156 | 0.9 | 1.7 | 0.00 | 0.00 | 0.00 | 89 | 1007.9 |
| 20260506021419 | 78 | 163 | 0.0 | 0.0 | 0.00 | 0.00 | 0.00 | 89 | 1007.8 |
| 20260506020915 | 78 | 169 | 0.9 | 1.7 | 0.00 | 0.00 | 0.00 | 89 | 1007.8 |
| 20260506020414 | 78 | 152 | 0.9 | 1.7 | 0.00 | 0.00 | 0.00 | 88 | 1007.9 |
| 20260506015910 | 78 | 146 | 0.0 | 0.0 | 0.00 | 0.00 | 0.00 | 88 | 1007.7 |
| 20260506015408 | 78 | 165 | 0.9 | 1.7 | 0.00 | 0.00 | 0.00 | 88 | 1007.8 |
| 20260506014904 | 78 | 153 | 0.0 | 0.0 | 0.00 | 0.00 | 0.00 | 87 | 1007.6 |
| 20260506014401 | 78 | 156 | 0.0 | 0.0 | 0.00 | 0.00 | 0.00 | 87 | 1007.5 |
| 20260506013858 | 79 | 154 | 0.0 | 0.0 | 0.00 | 0.00 | 0.00 | 87 | 1007.6 |
| 20260506013356 | 79 | 152 | 0.0 | 0.0 | 0.00 | 0.00 | 0.00 | 86 | 1007.4 |
| 20260506012852 | 79 | 148 | 0.0 | 0.0 | 0.00 | 0.00 | 0.00 | 86 | 1007.5 |
| 20260506012349 | 79 | 152 | 0.0 | 0.0 | 0.00 | 0.00 | 0.00 | 86 | 1007.5 |
| 20260506011846 | 80 | 157 | 0.0 | 0.0 | 0.00 | 0.00 | 0.00 | 85 | 1007.4 |
| 20260506011343 | 80 | 151 | 0.0 | 0.0 | 0.00 | 0.00 | 0.00 | 85 | 1007.5 |
| 20260506010840 | 80 | 155 | 0.0 | 0.0 | 0.00 | 0.00 | 0.00 | 84 | 1007.8 |
| 20260506010338 | 80 | 149 | 0.0 | 0.0 | 0.00 | 0.00 | 0.00 | 84 | 1007.7 |
| 20260506005835 | 81 | 146 | 0.0 | 0.0 | 0.00 | 0.00 | 0.00 | 83 | 1007.5 |
| 20260506005331 | 81 | 158 | 0.0 | 0.0 | 0.00 | 0.00 | 0.00 | 83 | 1007.5 |
| 20260506004827 | 81 | 158 | 0.0 | 0.0 | 0.00 | 0.00 | 0.00 | 83 | 1007.4 |
| 20260506004325 | 81 | 158 | 0.0 | 0.0 | 0.00 | 0.00 | 0.00 | 82 | 1007.4 |
| 20260506003821 | 82 | 150 | 0.0 | 0.0 | 0.00 | 0.00 | 0.00 | 82 | 1007.3 |
| 20260506003318 | 82 | 152 | 0.0 | 0.0 | 0.00 | 0.00 | 0.00 | 81 | 1007.2 |
| 20260506002814 | 82 | 148 | 0.0 | 0.0 | 0.00 | 0.00 | 0.00 | 81 | 1007.4 |
| 20260506002311 | 82 | 156 | 0.0 | 0.0 | 0.00 | 0.00 | 0.00 | 80 | 1007.3 |
| 20260506001806 | 82 | 159 | 0.9 | 2.6 | 0.00 | 0.00 | 0.00 | 80 | 1007.3 |
| 20260506001304 | 82 | 152 | 0.0 | 0.0 | 0.00 | 0.00 | 0.00 | 80 | 1007.0 |
| 20260506000800 | 82 | 145 | 0.0 | 0.0 | 0.00 | 0.00 | 0.00 | 80 | 1007.3 |
| 20260506000258 | 82 | 164 | 1.7 | 4.3 | 0.00 | 0.00 | 0.00 | 80 | 1007.3 |
| 20260505235755 | 82 | 141 | 0.0 | 0.0 | 0.00 | 0.00 | 0.00 | 80 | 1007.4 |
| 20260505235253 | 83 | 154 | 0.0 | 0.0 | 0.00 | 0.00 | 0.00 | 79 | 1007.0 |
| 20260505234749 | 83 | 172 | 2.6 | 2.6 | 0.00 | 0.00 | 0.00 | 79 | 1007.0 |
| 20260505234247 | 83 | 172 | 0.9 | 4.3 | 0.00 | 0.00 | 0.00 | 78 | 1007.1 |
| 20260505233743 | 83 | 160 | 1.7 | 2.6 | 0.00 | 0.00 | 0.00 | 78 | 1007.1 |
| 20260505233241 | 83 | 153 | 0.0 | 0.0 | 0.00 | 0.00 | 0.00 | 78 | 1007.1 |
| 20260505232738 | 83 | 152 | 0.0 | 0.0 | 0.00 | 0.00 | 0.00 | 78 | 1007.1 |
| 20260505232236 | 83 | 153 | 0.0 | 0.0 | 0.00 | 0.00 | 0.00 | 78 | 1007.0 |
| 20260505231732 | 83 | 192 | 2.6 | 4.3 | 0.00 | 0.00 | 0.00 | 78 | 1007.0 |
| 20260505231231 | 83 | 151 | 0.9 | 1.7 | 0.00 | 0.00 | 0.00 | 77 | 1007.0 |
| 20260505230729 | 83 | 158 | 0.0 | 0.0 | 0.00 | 0.00 | 0.00 | 78 | 1007.1 |
| 20260505230225 | 83 | 146 | 0.0 | 0.0 | 0.00 | 0.00 | 0.00 | 77 | 1007.0 |
| 20260505225722 | 83 | 153 | 0.0 | 0.0 | 0.00 | 0.00 | 0.00 | 77 | 1006.8 |
| 20260505225219 | 83 | 146 | 0.0 | 0.0 | 0.00 | 0.00 | 0.00 | 78 | 1006.8 |
| 20260505224714 | 83 | 170 | 0.0 | 0.9 | 0.00 | 0.00 | 0.00 | 77 | 1006.9 |
| 20260505224212 | 83 | 159 | 0.0 | 0.0 | 0.00 | 0.00 | 0.00 | 77 | 1006.7 |
| 20260505223710 | 84 | 150 | 1.7 | 2.6 | 0.00 | 0.00 | 0.00 | 76 | 1006.9 |
| 20260505223205 | 84 | 144 | 1.7 | 1.7 | 0.00 | 0.00 | 0.00 | 76 | 1006.9 |
| 20260505222702 | 84 | 160 | 1.7 | 1.7 | 0.00 | 0.00 | 0.00 | 76 | 1006.7 |
| 20260505222158 | 84 | 151 | 0.9 | 1.7 | 0.00 | 0.00 | 0.00 | 75 | 1007.1 |
| 20260505221655 | 84 | 172 | 0.9 | 0.9 | 0.00 | 0.00 | 0.00 | 74 | 1006.9 |
| 20260505221152 | 84 | 168 | 0.0 | 0.0 | 0.00 | 0.00 | 0.00 | 76 | 1006.8 |
| 20260505220649 | 85 | 155 | 2.6 | 2.6 | 0.00 | 0.00 | 0.00 | 74 | 1006.9 |
| 20260505220147 | 85 | 149 | 4.3 | 5.2 | 0.00 | 0.00 | 0.00 | 73 | 1007.0 |
| 20260505215644 | 84 | 136 | 0.0 | 0.9 | 0.00 | 0.00 | 0.00 | 75 | 1007.1 |
| 20260505215142 | 84 | 182 | 2.6 | 4.3 | 0.00 | 0.00 | 0.00 | 75 | 1007.0 |
| 20260505214640 | 84 | 176 | 4.3 | 6.1 | 0.00 | 0.00 | 0.00 | 75 | 1007.2 |
| 20260505214136 | 85 | 154 | 0.0 | 0.0 | 0.00 | 0.00 | 0.00 | 75 | 1007.3 |
| 20260505213634 | 85 | 152 | 1.7 | 1.7 | 0.00 | 0.00 | 0.00 | 73 | 1007.3 |
| 20260505213131 | 85 | 157 | 0.0 | 0.0 | 0.00 | 0.00 | 0.00 | 73 | 1007.3 |
| 20260505212626 | 85 | 191 | 3.5 | 5.2 | 0.00 | 0.00 | 0.00 | 73 | 1007.5 |
| 20260505212125 | 85 | 187 | 4.3 | 11.3 | 0.00 | 0.00 | 0.00 | 73 | 1007.7 |
| 20260505211621 | 84 | 142 | 2.6 | 4.3 | 0.00 | 0.00 | 0.00 | 74 | 1007.3 |
| 20260505211118 | 84 | 149 | 1.7 | 1.7 | 0.00 | 0.00 | 0.00 | 75 | 1007.7 |
| 20260505210615 | 85 | 131 | 2.6 | 5.2 | 0.00 | 0.00 | 0.00 | 73 | 1007.6 |
| 20260505210112 | 85 | 167 | 2.6 | 2.6 | 0.00 | 0.00 | 0.00 | 73 | 1007.6 |
| 20260505205609 | 84 | 183 | 3.5 | 5.2 | 0.00 | 0.00 | 0.00 | 74 | 1007.8 |
| 20260505205107 | 84 | 159 | 2.6 | 4.3 | 0.00 | 0.00 | 0.00 | 74 | 1007.9 |
| 20260505204604 | 85 | 215 | 5.2 | 7.8 | 0.00 | 0.00 | 0.00 | 73 | 1008.1 |
| 20260505204101 | 85 | 151 | 1.7 | 2.6 | 0.00 | 0.00 | 0.00 | 73 | 1007.9 |
| 20260505203558 | 84 | 148 | 0.9 | 1.7 | 0.00 | 0.00 | 0.00 | 75 | 1008.1 |
| 20260505203055 | 84 | 157 | 2.6 | 4.3 | 0.00 | 0.00 | 0.00 | 75 | 1008.1 |
| 20260505202551 | 84 | 211 | 3.5 | 4.3 | 0.00 | 0.00 | 0.00 | 74 | 1008.2 |
| 20260505202047 | 84 | 153 | 0.0 | 0.0 | 0.00 | 0.00 | 0.00 | 75 | 1008.4 |
| 20260505201544 | 84 | 150 | 0.0 | 0.0 | 0.00 | 0.00 | 0.00 | 76 | 1008.5 |
| 20260505201042 | 84 | 160 | 2.6 | 5.2 | 0.00 | 0.00 | 0.00 | 75 | 1008.4 |
| 20260505200539 | 83 | 163 | 0.9 | 0.9 | 0.00 | 0.00 | 0.00 | 78 | 1008.3 |
| 20260505200036 | 82 | 141 | 0.0 | 0.9 | 0.00 | 0.00 | 0.00 | 79 | 1008.5 |
| 20260505195532 | 82 | 157 | 1.7 | 4.3 | 0.00 | 0.00 | 0.00 | 79 | 1008.6 |
| 20260505195030 | 82 | 147 | 0.9 | 1.7 | 0.00 | 0.00 | 0.00 | 79 | 1008.8 |
| 20260505194527 | 82 | 155 | 1.7 | 1.7 | 0.00 | 0.00 | 0.00 | 79 | 1008.6 |
| 20260505194022 | 83 | 195 | 0.9 | 1.7 | 0.00 | 0.00 | 0.00 | 77 | 1008.8 |
| 20260505193520 | 83 | 201 | 4.3 | 6.1 | 0.00 | 0.00 | 0.00 | 76 | 1008.8 |
| 20260505193017 | 83 | 151 | 0.9 | 1.7 | 0.00 | 0.00 | 0.00 | 78 | 1008.7 |
| 20260505192515 | 83 | 160 | 0.0 | 0.9 | 0.00 | 0.00 | 0.00 | 78 | 1009.1 |
| 20260505192012 | 82 | 133 | 1.7 | 2.6 | 0.00 | 0.00 | 0.00 | 78 | 1008.7 |
| 20260505191510 | 83 | 191 | 4.3 | 7.0 | 0.00 | 0.00 | 0.00 | 77 | 1009.1 |
| 20260505191009 | 82 | 151 | 1.7 | 1.7 | 0.00 | 0.00 | 0.00 | 78 | 1009.0 |
| 20260505190503 | 82 | 185 | 2.6 | 2.6 | 0.00 | 0.00 | 0.00 | 78 | 1009.0 |
| 20260505185958 | 82 | 213 | 1.7 | 1.7 | 0.00 | 0.00 | 0.00 | 78 | 1009.2 |
| 20260505185456 | 82 | 182 | 2.6 | 4.3 | 0.00 | 0.00 | 0.00 | 78 | 1009.1 |
| 20260505184952 | 82 | 156 | 1.7 | 2.6 | 0.00 | 0.00 | 0.00 | 79 | 1009.1 |
| 20260505184449 | 81 | 160 | 0.9 | 0.9 | 0.00 | 0.00 | 0.00 | 80 | 1009.2 |
| 20260505183945 | 81 | 163 | 1.7 | 1.7 | 0.00 | 0.00 | 0.00 | 80 | 1009.2 |
| 20260505183442 | 82 | 154 | 2.6 | 4.3 | 0.00 | 0.00 | 0.00 | 79 | 1009.1 |
| 20260505182939 | 81 | 177 | 1.7 | 2.6 | 0.00 | 0.00 | 0.00 | 80 | 1009.5 |
| 20260505182436 | 81 | 191 | 2.6 | 2.6 | 0.00 | 0.00 | 0.00 | 81 | 1009.4 |
| 20260505181932 | 80 | 145 | 0.0 | 0.0 | 0.00 | 0.00 | 0.00 | 84 | 1009.4 |
| 20260505181430 | 79 | 159 | 1.7 | 1.7 | 0.00 | 0.00 | 0.00 | 83 | 1009.3 |
| 20260505180926 | 79 | 153 | 0.9 | 1.7 | 0.00 | 0.00 | 0.00 | 83 | 1009.5 |
| 20260505180423 | 79 | 156 | 0.9 | 1.7 | 0.00 | 0.00 | 0.00 | 84 | 1009.9 |
| 20260505175920 | 79 | 183 | 0.0 | 0.0 | 0.00 | 0.00 | 0.00 | 83 | 1009.7 |
| 20260505175416 | 79 | 154 | 0.0 | 0.0 | 0.00 | 0.00 | 0.00 | 83 | 1009.8 |
| 20260505174912 | 78 | 164 | 1.7 | 4.3 | 0.00 | 0.00 | 0.00 | 84 | 1009.9 |
| 20260505174410 | 78 | 167 | 0.0 | 0.0 | 0.00 | 0.00 | 0.00 | 85 | 1009.8 |
| 20260505173906 | 77 | 159 | 1.7 | 1.7 | 0.00 | 0.00 | 0.00 | 87 | 1009.9 |
| 20260505173402 | 76 | 161 | 0.9 | 0.9 | 0.00 | 0.00 | 0.00 | 87 | 1010.1 |
| 20260505172859 | 76 | 163 | 2.6 | 4.3 | 0.00 | 0.00 | 0.00 | 88 | 1010.2 |
| 20260505172357 | 76 | 160 | 0.0 | 0.9 | 0.00 | 0.00 | 0.00 | 89 | 1010.3 |
| 20260505171857 | 76 | 151 | 1.7 | 1.7 | 0.00 | 0.00 | 0.00 | 89 | 1010.1 |
| 20260505171354 | 75 | 154 | 2.6 | 2.6 | 0.00 | 0.00 | 0.00 | 89 | 1010.0 |
| 20260505170850 | 75 | 153 | 0.9 | 0.9 | 0.00 | 0.00 | 0.00 | 89 | 1010.1 |
| 20260505170348 | 75 | 167 | 0.9 | 1.7 | 0.00 | 0.00 | 0.00 | 90 | 1010.1 |
| 20260505165842 | 75 | 147 | 0.0 | 0.9 | 0.00 | 0.00 | 0.00 | 91 | 1010.4 |
| 20260505165338 | 74 | 175 | 1.7 | 2.6 | 0.00 | 0.00 | 0.00 | 90 | 1010.3 |
| 20260505164834 | 74 | 154 | 1.7 | 1.7 | 0.00 | 0.00 | 0.00 | 90 | 1010.2 |
| 20260505164331 | 74 | 153 | 0.9 | 0.9 | 0.00 | 0.00 | 0.00 | 90 | 1010.1 |
| 20260505163829 | 74 | 157 | 2.6 | 2.6 | 0.00 | 0.00 | 0.00 | 90 | 1010.1 |
| 20260505163328 | 74 | 166 | 1.7 | 1.7 | 0.00 | 0.00 | 0.00 | 91 | 1010.1 |
| 20260505162826 | 74 | 162 | 1.7 | 1.7 | 0.00 | 0.00 | 0.00 | 91 | 1010.4 |
| 20260505162322 | 73 | 161 | 1.7 | 2.6 | 0.00 | 0.00 | 0.00 | 91 | 1010.2 |
| 20260505161819 | 73 | 151 | 0.0 | 0.0 | 0.00 | 0.00 | 0.00 | 92 | 1010.5 |
| 20260505161316 | 73 | 168 | 0.0 | 0.0 | 0.00 | 0.00 | 0.00 | 92 | 1010.2 |
| 20260505160813 | 73 | 169 | 1.7 | 4.3 | 0.00 | 0.00 | 0.00 | 93 | 1010.2 |
| 20260505160311 | 73 | 161 | 1.7 | 1.7 | 0.00 | 0.00 | 0.00 | 93 | 1010.5 |
| 20260505153250 | 71 | 152 | 0.9 | 0.9 | 0.00 | 0.00 | 0.00 | 95 | 1010.3 |
| 20260505152747 | 71 | 152 | 0.9 | 0.9 | 0.00 | 0.00 | 0.00 | 95 | 1010.1 |
| 20260505152244 | 71 | 155 | 0.9 | 1.7 | 0.00 | 0.00 | 0.00 | 96 | 1010.2 |
| 20260505151738 | 71 | 182 | 1.7 | 2.6 | 0.00 | 0.00 | 0.00 | 96 | 1010.1 |
| 20260505151236 | 71 | 148 | 0.0 | 0.0 | 0.00 | 0.00 | 0.00 | 96 | 1009.9 |
| 20260505150732 | 71 | 191 | 3.5 | 7.0 | 0.00 | 0.00 | 0.00 | 96 | 1009.9 |
| 20260505150229 | 71 | 150 | 0.9 | 0.9 | 0.00 | 0.00 | 0.00 | 96 | 1010.1 |
| 20260505140154 | 70 | 156 | 2.6 | 4.3 | 0.00 | 0.00 | 0.00 | 97 | 1009.8 |
| 20260505130118 | 70 | 156 | 0.0 | 0.9 | 0.00 | 0.00 | 0.00 | 97 | 1009.0 |
| 20260505124607 | 70 | 170 | 2.6 | 2.6 | 0.00 | 0.00 | 0.00 | 97 | 1008.8 |
| 20260505124103 | 70 | 149 | 1.7 | 4.3 | 0.00 | 0.00 | 0.00 | 97 | 1008.9 |